Regional Weather Roundup
Issued by NWS

Home | Current Version | Previous Version | Graphics & Text | Print | Product List | Glossary On
Versions: 1 2 3 4 5 6 7 8 9 10 11 12 13 14 15 16 17 18 19 20 21 22 23 24 25 26 27 28 29 30 31 32 33 34 35 36 37 38 39 40 41 42 43 44 45 46 47 48 49 50
000
ASUS43 KDMX 250206
RWRIA

WEATHER ROUNDUP FOR IOWA
NATIONAL WEATHER SERVICE DES MOINES IA
900 PM CDT THU MAY 24 2018

NOTE: "FAIR" INDICATES FEW OR NO CLOUDS BELOW 12,000 FEET WITH NO
SIGNIFICANT WEATHER AND/OR OBSTRUCTIONS TO VISIBILITY.

* - THESE STATIONS ARE NOT NWS STATIONS...THUS NOT UNDER NWS
QUALITY CONTROL.  THEY ALSO DO NOT REPORT WEATHER SUCH
AS PRECIPITATION OR FOG.

IAZ001>003-012>014-020>022-031>034-043>046-250300-
   NORTHWEST IOWA

CITY           SKY/WX    TMP DP  RH WIND       PRES   REMARKS
CARROLL *      CLOUDY    79  64  61 S10       29.92S HX  81
CHEROKEE *     CLEAR     80  64  57 S9        29.89S HX  81
DENISON *      MOCLDY    81  64  57 S8        29.93R HX  82
LE MARS *      PTCLDY    77  61  57 N7        29.88S
ORANGE CITY *  CLOUDY    77  61  57 CALM      29.89F
SHELDON *      PTCLDY    75  64  69 N7        29.88F
SIOUX CITY     CLEAR     82  61  48 S13       29.87S HX  83
SPENCER        PTCLDY    80  62  54 SW9       29.89S HX  81
STORM LAKE *   CLEAR     77  63  61 S13       29.92S
$$

IAZ055>058-069>071-079>083-090>094-250300-
   SOUTHWEST IOWA

CITY           SKY/WX    TMP DP  RH WIND       PRES   REMARKS
ATLANTIC *     MOCLDY    81  64  57 S7G14     29.93S HX  82
AUDUBON *      CLOUDY    75  68  78 S7        29.94S
CLARINDA *     CLOUDY    79  64  61 S13       29.98R HX  81
COUNCIL BLFS * MOCLDY    81  72  74 S15G22    29.92R HX  84
CRESTON *      MOCLDY    77  63  61 S10       29.99S
HARLAN  *      CLOUDY    81  64  57 S10       29.96R HX  82
LAMONI         CLOUDY    77  65  66 S7        29.98S
RED OAK *      CLOUDY    81  63  54 S18G25    29.93S HX  82
SHENANDOAH *   CLOUDY    79  64  61 S18G24    29.94S HX  81
$$

IAZ047>049-059>061-072>074-084-250300-
   CENTRAL IOWA

CITY           SKY/WX    TMP DP  RH WIND       PRES   REMARKS
AMES           CLEAR     78  63  59 S10       29.94S HX  80
ANKENY *       CLOUDY    81  64  57 S10       29.96S HX  82
BOONE *        PTCLDY    81  64  57 S9        29.94S HX  82
CHARITON *     PTCLDY    75  66  73 S5        29.98R
DES MOINES     PTCLDY    79  64  60 S9        29.95S HX  81
GRINNELL*      CLEAR     78  63  59 S7        29.98S HX  80
KNOXVILLE *    PTCLDY    77  63  61 S7        29.97R
MARSHALLTOWN   CLEAR     78  64  61 S9        29.94F HX  80
NEWTON *       CLEAR     77  64  65 S7        29.97S
PELLA *        CLEAR     78  63  61 S6        29.98S
PERRY *        FAIR      80  59  48 S14       29.94R HX  81
$$

IAZ004>006-015-016-023>025-035-036-250300-
   NORTH CENTRAL IOWA

CITY           SKY/WX    TMP DP  RH WIND       PRES   REMARKS
ALGONA *       DRIZZLE   72  64  78 NW12G18   29.94R
CLARION *      CLOUDY    79  63  57 S12G17    29.93R HX  80
ESTHERVILLE    PTCLDY    72  65  78 SE23G35   29.90R
FORT DODGE *   CLOUDY    81  63  54 S12       29.92S HX  82
MASON CITY     CLEAR     79  61  53 S10       29.94R HX  80
FOREST CITY *  FAIR      79  61  53 S12       29.93R HX  80
WEBSTER CITY * CLEAR     79  64  61 S12       29.91S HX  81
IOWA FALLS *   FAIR      80  62  55 S10       29.96R HX  81
$$

IAZ007>011-017>019-026>030-037>042-050>054-066-250300-
   NORTHEAST IOWA

CITY           SKY/WX    TMP DP  RH WIND       PRES   REMARKS
CEDAR RAPIDS   FAIR      79  63  57 S6        29.97S HX  80
CHARLES CITY * FAIR      77  61  57 S10       29.95S
CLINTON *      FAIR      77  61  57 S7        30.00S
DECORAH *      FAIR      79  64  61 S6        29.94S HX  81
DUBUQUE        FAIR      74  61  63 S8        29.99S
MONTICELLO *   FAIR      77  64  65 S7        29.98S
OELWEIN *      FAIR      79  64  61 S12       29.96F HX  81
WATERLOO       FAIR      80  63  55 S9        29.94S HX  81
$$

IAZ064-065-067-068-078-250300-
   EAST CENTRAL IOWA

CITY           SKY/WX    TMP DP  RH WIND       PRES   REMARKS
DAVENPORT      FAIR      76  59  55 S7        30.01S
IOWA CITY      FAIR      78  62  57 S6        29.99S HX  80
MT. PLEASANT * CLEAR     77  57  50 S6        30.00S
MUSCATINE *    FAIR      77  61  57 S3        29.99S
QUAD CITIES    FAIR      77  62  59 S6        29.99R
$$

IAZ062-063-075>077-085>089-095>099-250300-
   SOUTHEAST IOWA

CITY           SKY/WX    TMP DP  RH WIND       PRES   REMARKS
BURLINGTON     CLEAR     77  59  53 S6        30.00R
FAIRFIELD *    CLEAR     79  61  53 S6        29.99S HX  80
FORT MADISON * CLEAR     77  61  57 CALM      30.02R
KEOKUK *       CLEAR     79  55  44 S6        30.00S
OSKALOOSA *    FAIR      78  65  64 S7        29.98F HX  80
CENTERVILLE *  FAIR      77  68  73 CALM      30.01S
OTTUMWA        CLEAR     79  65  62 S7        29.98S HX  81
WASHINGTON *   CLEAR     79  61  53 S8        30.00S HX  80
$$

ABBREVIATIONS USED IN REMARKS
   TC - TEMPERATURES IN CELSIUS
  WCI - WIND CHILL INDEX
   HX - HEAT INDEX
  VSB - VISIBILITY
$$





USA.gov is the U.S. government's official web portal to all federal, state and local government web resources and services.